STARLINK-34029 (63805 NORAD) Tracking and Keplerian Element Data

This shows tracking and keplerian element data for the satellite.

Feedback or suggestion? Click here.




ElementValue
Catalog63805
NameSTARLINK-34029
Epoch Orbit3629
Epoch Day353.15385305
Epoch Year2025
RAAN267.7271
Inclination43.0013
Eccentricity5.32E-05
Argument of Perigee267.0137
Mean Anonmoly93.0653
Mean Motion15.27602249
Decay Rate0.00022754
L11 63805U 25092B 25353.15385305 .00022754 00000+0 83328-3 0 9994
L22 63805 43.0013 267.7271 0000532 267.0137 93.0653 15.27602249 36297



Live tracking and technical data element details for STARLINK-34029 (NORAD 63805). STARLINK-34029 can be tracked NOW for your location showing map with azimuth and elevation plus other details from your city location.







IsCatalogInMostPopularTable: catalog: 63805, numindb: 2
Update: records affected: 1



GetName: 63805 STARLINK-34029

Hit Count: updated at: Sat, 07 Feb 2026 08:52:05 GMT